Location: Berville
(49.1893°N, 2.0748°E)
Time: 00:27:26
(UTC+00:00)

Cosmos 836 Rocket - Pass Details

Date: 08 February 2023
Orbit: 756 x 778 km, 74.1° (Epoch: 24 March)

Event Time Altitude Azimuth Distance (km) Brightness Sun altitude
Rises 19:22:55 0° 337° (NNW) 3,243 8.1 -23.8°
Reaches altitude 10° 19:25:19 10° 339° (NNW) 2,316 7.3 -24.1°
Maximum altitude 19:30:35 76° 66° (ENE) 798 4.3 -25.0°
Enters shadow 19:30:48 75° 92° (E) 803 4.3 -25.0°
